[[{"header":{"parameterUnit":"m.s-1","parameterCategory":2,"la1":30.2991,"la2":30.254,"lo1":-89.0895,"lo2":-89.0444,"dy":0.0017,"dx":0.0017,"nx":28,"ny":28,"refTime":"2025-08-16T09:00:00:Z","depth":"0","parameterNumber":2,"parameterNumberName":"U-component_of_CURRENTS"},"data":[0,0,0,0,0,0,0,0,0,0,0,0,0,0,0,0,0,0,0,0,0,0,0,0,0,0,0,0,0,0,0,0,0,0,0,0,0,0,0,0,0,0,0,0,0,0,0,0,0,0,0,0,0,0,0,0,0,0,0.3531,0.3534,0,0.3656,0.3656,0.3657,0.3634,0.3632,0.3631,0.363,0.3612,0.3613,0.3614,0,0,0,0,0,0,0,0,0,0,0,0,0,0.3357,0.3359,0.3531,0.3534,0.3536,0.3656,0.3657,0.3657,0.3634,0.3632,0.3631,0.363,0.3612,0.3613,0.3614,0,0,0,0,0,0,0,0,0,0,0,0,0,0.3442,0.336,0.3531,0.3547,0.3551,0.3656,0.3657,0.3657,0.3634,0.3632,0.3631,0.3629,0.3612,0.3613,0.3614,0.3655,0,0,0.3617,0.3617,0,0,0,0,0,0,0,0,0.3437,0.3446,0.3542,0.3547,0.3551,0.3637,0.359,0.3654,0.3635,0.359,0.363,0.3628,0.3616,0.3617,0.363,0.3654,0.3654,0.3617,0.3617,0.3618,0.3618,0,0,0,0,0,0,0,0.3431,0.3442,0.3569,0.3546,0.3551,0.3579,0.3587,0.3602,0.36,0.3594,0.3596,0.3628,0.3616,0.3629,0.3629,0.3653,0.3617,0.3618,0.3618,0.3618,0.3702,0.3703,0,0,0,0,0,0,0.3436,0.3436,0.3565,0.3574,0.3501,0.3584,0.3592,0.3602,0.3603,0.3606,0.363,0.3627,0.3628,0.3628,0.3628,0.3674,0.3618,0.3619,0.3619,0.37,0.3702,0.3704,0,0,0,0,0,0,0.3432,0.3446,0.356,0.3518,0.3536,0.3589,0.36,0.3606,0.3629,0.3634,0.3631,0.365,0.3627,0.3627,0.3644,0.3673,0.3619,0.362,0.3698,0.3701,0.3703,0.3768,0,0,0,0,0,0,0.3425,0.3442,0.3453,0.3518,0.3539,0.3636,0.3604,0.361,0.3657,0.3654,0.3651,0.3646,0.3626,0.3643,0.3645,0.3673,0.3621,0.3696,0.3699,0.3702,0.3764,0.3772,0.378,0,0,0,0,0,0.3418,0.3442,0.3452,0.3469,0.355,0.364,0.3652,0.3677,0.366,0.3685,0.367,0.3647,0.3664,0.3645,0.3647,0.3677,0.3695,0.3698,0.3702,0.376,0.3771,0.378,0,0,0,0,0,0,0.3377,0.3446,0.3457,0.35,0.3574,0.364,0.3671,0.3692,0.3705,0.3683,0.367,0.3667,0.3696,0.3682,0.3662,0.371,0.3676,0.368,0.3719,0.3729,0.3737,0.3755,0.3621,0,0,0,0,0,0.3376,0.3405,0.3487,0.3526,0.3559,0.3617,0.3657,0.3675,0.3703,0.3707,0.3708,0.3702,0.3717,0.3717,0.3725,0.3753,0.3787,0.3774,0.3782,0.3788,0.3806,0.3859,0.3873,0.3716,0.3716,0.3716,0,0,0.3375,0.3419,0.3437,0.3521,0.3566,0.362,0.3632,0.3694,0.3726,0.3703,0.3727,0.3736,0.3733,0.3761,0.3772,0.3749,0.3863,0.3793,0.3799,0.3813,0.3864,0.3879,0.3893,0.3719,0.3718,0.3718,0,0,0.3394,0.3422,0.3454,0.3511,0.3595,0.3632,0.3656,0.3725,0.3739,0.3778,0.377,0.3802,0.381,0.3827,0.3832,0.3895,0.3909,0.3893,0.3942,0.3993,0.4006,0.4018,0.4133,0.4154,0.3889,0.3889,0.389,0,0.3393,0.3434,0.3484,0.3533,0.3581,0.3637,0.3684,0.3721,0.3784,0.3804,0.3784,0.3842,0.3844,0.3898,0.3921,0.3914,0.3964,0.3902,0.4004,0.4016,0.4028,0.4141,0.4164,0.3893,0.3893,0.3892,0.3892,0,0.3438,0.3471,0.35,0.3564,0.3622,0.3676,0.374,0.3781,0.3798,0.3832,0.3892,0.391,0.3941,0.3959,0.3959,0.4048,0.407,0.4014,0.398,0.4048,0.4164,0.4186,0.3898,0.3897,0.3896,0.3895,0,0,0.3435,0.3512,0.3521,0.3547,0.3637,0.3688,0.3744,0.3821,0.386,0.3904,0.3971,0.4011,0.4028,0.4039,0.4058,0.4117,0.4262,0.4108,0.4109,0.4224,0.4435,0.4358,0.4375,0.4218,0.4221,0.4223,0.4504,0,0.3456,0.3524,0.3564,0.3627,0.3667,0.3728,0.3781,0.3849,0.3898,0.3974,0.4018,0.408,0.4054,0.409,0.4142,0.4233,0.4317,0.4196,0.435,0.4357,0.4279,0.4395,0.4206,0.4429,0.4526,0.453,0.4533,0,0.3493,0.3527,0.3582,0.3648,0.3672,0.3714,0.3806,0.386,0.3969,0.4011,0.4077,0.4127,0.4246,0.4203,0.4381,0.4304,0.4385,0.4451,0.4461,0.4377,0.4318,0.4366,0.4466,0.433,0.4567,0.4565,0.4562,0,0.3471,0.3544,0.3576,0.3604,0.3687,0.3718,0.3764,0.3865,0.3924,0.405,0.4124,0.4225,0.4319,0.4402,0.453,0.447,0.4744,0.466,0.4682,0.468,0.4543,0.4522,0.4523,0.48,0.48,0.4799,0.4798,0,0.3487,0.3511,0.3561,0.3581,0.3625,0.3689,0.3756,0.3823,0.3943,0.4038,0.4133,0.425,0.4374,0.4532,0.4601,0.4731,0.4792,0.4739,0.4745,0.4565,0.4543,0.4432,0.4395,0.4809,0.4807,0.4805,0.4803,0,0.3466,0.35,0.3534,0.3595,0.3616,0.3644,0.3747,0.3813,0.3918,0.4061,0.4117,0.4323,0.4517,0.4655,0.4857,0.4836,0.4826,0.4987,0.4804,0.4779,0.4579,0.4553,0.4469,0.4337,0.5043,0.5043,0.5042,0,0.3462,0.3474,0.3527,0.3555,0.358,0.3632,0.369,0.3789,0.3875,0.4101,0.419,0.4432,0.4565,0.4836,0.4888,0.5019,0.4874,0.4906,0.4717,0.4581,0.4559,0.4381,0.4262,0.4613,0.4609,0.4606,0.4604,0,0.3456,0.347,0.351,0.3557,0.3605,0.3642,0.3729,0.3783,0.3928,0.405,0.423,0.4348,0.4604,0.4643,0.4813,0.4851,0.4637,0.4842,0.4734,0.4262,0.4039,0.3907,0.4473,0.4576,0.4579,0.4581,0.4583,0.4584,0.3468,0.3491,0.3552,0.3578,0.3622,0.3646,0.3639,0.3746,0.3841,0.3969,0.417,0.4264,0.4399,0.4581,0.4601,0.4485,0.4477,0.433,0.4343,0.4198,0.3938,0.447,0.4524,0.4527,0.4529,0.453,0.4532,0,0.3513,0.3547,0.3577,0.3604,0.3602,0.3626,0.3669,0.3631,0.3673,0.3841,0.3948,0.4035,0.4088,0.4167,0.415,0.3998,0.3808,0.3896,0.36,0.3529,0.4047,0.3887,0.376,0.376,0.376,0.376,0.376,0.376,0.356,0.3606,0.3592,0.3572,0.3564,0.3483,0.3455,0.3413,0.3462,0.3476,0.3495,0.3582,0.3752,0.3876,0.374,0.3649,0.3365,0.323,0.3236,0.3602,0.3641,0.3678,0.3513,0.331,0.331,0.2517,0.2511,0.2507]},{"header":{"parameterUnit":"m.s-1","parameterCategory":2,"la1":30.2991,"la2":30.254,"lo1":-89.0895,"lo2":-89.0444,"dy":0.0017,"dx":0.0017,"nx":28,"ny":28,"refTime":"2025-08-16T09:00:00:Z","depth":"0","parameterNumber":3,"parameterNumberName":"V-component_of_CURRENTS"},"data":[0,0,0,0,0,0,0,0,0,0,0,0,0,0,0,0,0,0,0,0,0,0,0,0,0,0,0,0,0,0,0,0,0,0,0,0,0,0,0,0,0,0,0,0,0,0,0,0,0,0,0,0,0,0,0,0,0,0,-0.0248,-0.025,0,-0.0391,-0.0393,-0.0394,-0.0441,-0.0441,-0.0441,-0.044,-0.0625,-0.063,-0.0636,0,0,0,0,0,0,0,0,0,0,0,0,0,-0.0122,-0.0123,-0.0248,-0.025,-0.0252,-0.0391,-0.0393,-0.0394,-0.0441,-0.0441,-0.044,-0.044,-0.0624,-0.063,-0.0636,0,0,0,0,0,0,0,0,0,0,0,0,0,-0.0209,-0.0124,-0.0248,-0.0295,-0.0301,-0.0391,-0.0393,-0.0395,-0.0441,-0.0441,-0.044,-0.044,-0.0622,-0.0629,-0.0637,-0.0695,0,0,-0.0661,-0.0664,0,0,0,0,0,0,0,0,-0.0204,-0.0213,-0.0286,-0.0292,-0.0299,-0.0401,-0.0416,-0.0498,-0.0441,-0.0385,-0.044,-0.044,-0.0557,-0.057,-0.0593,-0.0704,-0.0712,-0.0662,-0.0666,-0.067,-0.0672,0,0,0,0,0,0,0,-0.0197,-0.0208,-0.0302,-0.0288,-0.0296,-0.0346,-0.0356,-0.0432,-0.047,-0.039,-0.0394,-0.0415,-0.056,-0.0585,-0.0598,-0.0715,-0.0661,-0.0668,-0.0673,-0.0676,-0.0852,-0.0852,0,0,0,0,0,0,-0.0181,-0.0202,-0.0297,-0.0306,-0.0253,-0.0348,-0.0359,-0.0366,-0.0468,-0.0484,-0.0415,-0.0417,-0.0572,-0.0588,-0.0604,-0.0623,-0.067,-0.0677,-0.0682,-0.0852,-0.0852,-0.0852,0,0,0,0,0,0,-0.0178,-0.0188,-0.0291,-0.0261,-0.0278,-0.035,-0.0357,-0.0369,-0.0398,-0.0488,-0.0504,-0.0433,-0.0572,-0.0593,-0.064,-0.0632,-0.0681,-0.0688,-0.0852,-0.0852,-0.0852,-0.0697,0,0,0,0,0,0,-0.0173,-0.0185,-0.0185,-0.0259,-0.0279,-0.0324,-0.0359,-0.0372,-0.0413,-0.0416,-0.0509,-0.0525,-0.0573,-0.0628,-0.0648,-0.0644,-0.0694,-0.0852,-0.0852,-0.0852,-0.0702,-0.0691,-0.0682,0,0,0,0,0,-0.0168,-0.0166,-0.0183,-0.0196,-0.0275,-0.0323,-0.0337,-0.0386,-0.0414,-0.0413,-0.0464,-0.0522,-0.0642,-0.0633,-0.0657,-0.0656,-0.0852,-0.0852,-0.0852,-0.0706,-0.0693,-0.0682,0,0,0,0,0,0,-0.0117,-0.0174,-0.0194,-0.021,-0.0254,-0.0332,-0.0343,-0.0388,-0.0432,-0.043,-0.0518,-0.0536,-0.0578,-0.0644,-0.0632,-0.0709,-0.076,-0.0765,-0.0642,-0.0631,-0.0621,-0.057,-0.07,0,0,0,0,0,-0.0104,-0.0112,-0.0176,-0.0189,-0.0204,-0.0276,-0.0306,-0.0335,-0.0388,-0.0408,-0.0473,-0.0542,-0.06,-0.0632,-0.0693,-0.0737,-0.0742,-0.0756,-0.0746,-0.0737,-0.0713,-0.0715,-0.0702,-0.0851,-0.0851,-0.0851,0,0,-0.0093,-0.0123,-0.0131,-0.0178,-0.0214,-0.0223,-0.029,-0.0318,-0.0323,-0.0423,-0.0444,-0.0513,-0.0605,-0.0635,-0.0662,-0.0686,-0.0689,-0.0737,-0.0728,-0.0709,-0.0714,-0.0698,-0.0685,-0.0851,-0.0851,-0.0851,0,0,-0.0063,-0.009,-0.0082,-0.0107,-0.0151,-0.0186,-0.0192,-0.0258,-0.0278,-0.0313,-0.038,-0.0429,-0.0533,-0.0575,-0.0618,-0.0601,-0.0638,-0.0641,-0.0547,-0.0549,-0.0535,-0.0524,-0.0459,-0.0443,-0.0633,-0.0633,-0.0633,0,-0.0045,-0.004,-0.0089,-0.0083,-0.0094,-0.0162,-0.015,-0.0181,-0.0252,-0.0258,-0.0294,-0.0412,-0.0498,-0.0527,-0.0516,-0.0576,-0.0557,-0.0577,-0.053,-0.0519,-0.0509,-0.0447,-0.0431,-0.0626,-0.0627,-0.0627,-0.0628,0,-0.0007,-0.0001,0.0004,-0.0,-0.0018,-0.0016,-0.0059,-0.0067,-0.0107,-0.0144,-0.0179,-0.0275,-0.0343,-0.0386,-0.0448,-0.0436,-0.0433,-0.0511,-0.0543,-0.0484,-0.0423,-0.0409,-0.0615,-0.0618,-0.062,-0.0622,0,0,0.0031,0.0033,0.0037,0.0061,0.0033,0.0029,0.004,0.0031,0.0051,-0.0015,0.0006,-0.0107,-0.016,-0.0211,-0.03,-0.0304,-0.0222,-0.0365,-0.0369,-0.0268,-0.0156,-0.0162,-0.0148,-0.0284,-0.0282,-0.0281,-0.012,0,0.008,0.0126,0.0106,0.0156,0.0179,0.0145,0.0162,0.0149,0.0125,0.0135,0.0052,0.0029,-0.0095,-0.0113,-0.0141,-0.0215,-0.0187,-0.0254,-0.0258,-0.0256,-0.0244,-0.0134,-0.0162,-0.0024,-0.0106,-0.0104,-0.0103,0,0.0125,0.0157,0.0215,0.0256,0.0263,0.0279,0.0317,0.0327,0.0322,0.0308,0.0277,0.021,0.0181,0.007,0.0022,-0.0009,-0.0058,-0.0103,-0.01,-0.0151,-0.0238,-0.0113,0.0004,-0.0214,-0.0082,-0.0083,-0.0085,0,0.0187,0.0233,0.0293,0.0303,0.0333,0.036,0.0376,0.0378,0.0424,0.0432,0.0482,0.0399,0.0411,0.0308,0.0193,0.012,0.0182,0.0052,0.0026,0.0027,-0.0022,-0.003,-0.0095,0.0063,0.0062,0.0062,0.0061,0,0.0248,0.0297,0.033,0.0364,0.0449,0.0436,0.0519,0.0528,0.0576,0.0679,0.0579,0.0666,0.0475,0.0466,0.031,0.0246,0.0272,0.0095,0.0071,0.0033,0.0029,-0.0189,-0.0322,0.0068,0.0067,0.0065,0.0064,0,0.0305,0.0323,0.0401,0.0455,0.0478,0.054,0.0625,0.0698,0.0731,0.0877,0.0904,0.0912,0.0911,0.0744,0.0632,0.0444,0.023,0.0315,0.0322,0.0294,-0.0006,-0.0129,-0.0185,-0.0274,0.0299,0.03,0.0301,0,0.0344,0.039,0.0475,0.0541,0.0569,0.0656,0.0727,0.0769,0.0873,0.1049,0.1154,0.1211,0.1283,0.1128,0.0816,0.0603,0.0359,0.0411,0.0223,0.0026,-0.0129,-0.0231,-0.0311,0.0251,0.0251,0.0251,0.0251,0,0.0433,0.0455,0.0522,0.0651,0.0738,0.085,0.0965,0.1071,0.1182,0.1331,0.1559,0.1642,0.1515,0.1295,0.0976,0.0769,0.0227,0.0408,0.0184,-0.0167,-0.026,-0.0374,0.0138,0.0253,0.0253,0.0253,0.0253,0.0253,0.0502,0.0568,0.0659,0.078,0.0894,0.1054,0.1162,0.1327,0.1535,0.1802,0.1864,0.2043,0.1662,0.1222,0.092,0.029,0.0285,0.0048,-0.0067,-0.0137,-0.0291,0.0264,0.0337,0.0337,0.0337,0.0338,0.0338,0,0.06,0.0671,0.0792,0.0942,0.1087,0.1121,0.1338,0.1474,0.1747,0.202,0.2226,0.2151,0.1666,0.1124,0.0293,-0.0131,-0.0325,-0.0372,-0.056,-0.061,-0.0125,-0.0203,-0.0221,-0.0221,-0.0221,-0.0221,-0.022,-0.022,0.0659,0.0781,0.0836,0.1083,0.1196,0.1387,0.1513,0.1739,0.1956,0.2282,0.2419,0.2498,0.204,0.0581,-0.04,-0.0617,-0.0957,-0.1002,-0.1134,-0.0875,-0.0847,-0.0821,-0.0927,-0.1097,-0.1098,-0.1599,-0.1605,-0.1609]}],[{"header":{"parameterUnit":"m.s-1","parameterCategory":2,"la1":30.2991,"la2":30.254,"lo1":-89.0895,"lo2":-89.0444,"dy":0.0017,"dx":0.0017,"nx":28,"ny":28,"refTime":"2025-08-16T09:00:00:Z","depth":"2","parameterNumber":2,"parameterNumberName":"U-component_of_CURRENTS"},"data":[0,0,0,0,0,0,0,0,0,0,0,0,0,0,0,0,0,0,0,0,0,0,0,0,0,0,0,0,0,0,0,0,0,0,0,0,0,0,0,0,0,0,0,0,0,0,0,0,0,0,0,0,0,0,0,0,0,0,0.2492,0.2493,0,0.2556,0.2557,0.2557,0.2595,0.2595,0.2595,0.2596,0.2658,0.266,0.2661,0,0,0,0,0,0,0,0,0,0,0,0,0,0.2386,0.2387,0.2492,0.2493,0.2494,0.2556,0.2557,0.2558,0.2595,0.2595,0.2596,0.2596,0.2658,0.2659,0.2661,0,0,0,0,0,0,0,0,0,0,0,0,0,0.2437,0.2388,0.2491,0.2522,0.2525,0.2556,0.2557,0.2558,0.2595,0.2595,0.2596,0.2596,0.2657,0.2659,0.2661,0.2662,0,0,0.2667,0.2668,0,0,0,0,0,0,0,0,0.2434,0.244,0.2516,0.252,0.2524,0.257,0.2543,0.2593,0.2594,0.2565,0.2596,0.2597,0.263,0.2634,0.2641,0.2665,0.2667,0.2667,0.2669,0.2669,0.267,0,0,0,0,0,0,0,0.243,0.2438,0.2515,0.2517,0.2522,0.2527,0.2535,0.2552,0.2592,0.2568,0.2572,0.2583,0.2632,0.2639,0.2643,0.2668,0.2667,0.2669,0.267,0.2671,0.2737,0.2738,0,0,0,0,0,0,0.2428,0.2434,0.2513,0.2517,0.2482,0.2529,0.2538,0.2553,0.2592,0.2599,0.2582,0.2584,0.2636,0.2641,0.2646,0.2722,0.2669,0.2671,0.2672,0.2737,0.2737,0.2738,0,0,0,0,0,0,0.2426,0.2434,0.251,0.2479,0.2489,0.2531,0.2547,0.2554,0.2582,0.2603,0.261,0.2607,0.2636,0.2643,0.2701,0.2722,0.2672,0.2674,0.2736,0.2737,0.2738,0.2829,0,0,0,0,0,0,0.2422,0.2433,0.2452,0.2479,0.2491,0.2567,0.2547,0.2555,0.2589,0.2592,0.2626,0.2631,0.2637,0.2698,0.2703,0.2724,0.2675,0.2735,0.2736,0.2737,0.2825,0.2833,0.2839,0,0,0,0,0,0.2418,0.2445,0.2453,0.2463,0.2513,0.2569,0.2577,0.2605,0.2589,0.2627,0.2646,0.2631,0.2707,0.2702,0.2707,0.2729,0.2735,0.2736,0.2737,0.2822,0.2831,0.2839,0,0,0,0,0,0,0.241,0.2453,0.2461,0.25,0.2548,0.2578,0.2607,0.2614,0.2655,0.2662,0.266,0.2669,0.2728,0.2709,0.2703,0.2745,0.2709,0.2711,0.2771,0.278,0.2787,0.2792,0.2677,0,0,0,0,0,0.2416,0.2449,0.2492,0.2528,0.2548,0.2575,0.26,0.2629,0.2662,0.268,0.2685,0.2695,0.2731,0.2744,0.2769,0.2797,0.2808,0.2804,0.2811,0.2818,0.2822,0.2879,0.2893,0.2742,0.2742,0.2742,0,0,0.2422,0.245,0.2469,0.2529,0.2556,0.2594,0.2593,0.2652,0.2679,0.268,0.2707,0.2736,0.2748,0.2795,0.2814,0.2785,0.2867,0.2819,0.2825,0.2826,0.2883,0.2898,0.2911,0.2743,0.2743,0.2743,0,0,0.2442,0.2476,0.2505,0.2548,0.2611,0.2632,0.2652,0.2691,0.2711,0.2759,0.2763,0.2812,0.283,0.2855,0.2867,0.2921,0.2916,0.291,0.2942,0.2999,0.3012,0.3025,0.3068,0.3083,0.2898,0.2898,0.2898,0,0.2447,0.2486,0.2527,0.2566,0.2601,0.2645,0.2685,0.2713,0.2764,0.2779,0.2782,0.284,0.286,0.292,0.2944,0.2941,0.2967,0.2917,0.3012,0.3024,0.3035,0.3076,0.3092,0.2903,0.2902,0.2902,0.2901,0,0.2486,0.2521,0.2545,0.2599,0.2648,0.2702,0.2747,0.2778,0.2795,0.2819,0.2889,0.2931,0.2962,0.2973,0.2984,0.3059,0.3052,0.3033,0.2999,0.3057,0.3095,0.311,0.2909,0.2908,0.2906,0.2905,0,0,0.2474,0.2554,0.2561,0.2585,0.2675,0.2713,0.2762,0.2819,0.2847,0.2897,0.294,0.301,0.3034,0.305,0.3069,0.3115,0.3229,0.3109,0.311,0.3167,0.3357,0.3268,0.3275,0.3236,0.3239,0.3241,0.3357,0,0.2488,0.2545,0.2595,0.265,0.2679,0.2743,0.2789,0.2853,0.2895,0.2946,0.3004,0.3067,0.3061,0.3104,0.3153,0.3214,0.327,0.3199,0.3278,0.328,0.3208,0.329,0.3037,0.3112,0.3372,0.3374,0.3376,0,0.2501,0.2535,0.2591,0.2665,0.2687,0.2736,0.2815,0.287,0.2958,0.2999,0.3067,0.3114,0.3204,0.3196,0.3319,0.3276,0.333,0.3368,0.3373,0.3266,0.3219,0.3092,0.3129,0.34,0.3398,0.3396,0.3395,0,0.2453,0.2527,0.2567,0.2598,0.2694,0.2732,0.2791,0.2883,0.2945,0.3041,0.3107,0.319,0.3277,0.3335,0.3414,0.3382,0.3553,0.3508,0.3478,0.3472,0.3257,0.3226,0.3614,0.3614,0.3614,0.3613,0.3613,0,0.2441,0.2461,0.2546,0.2568,0.2628,0.2713,0.279,0.2855,0.2981,0.3063,0.314,0.3229,0.3327,0.3426,0.3456,0.3516,0.3587,0.3507,0.3505,0.3279,0.3251,0.3488,0.3472,0.3618,0.3617,0.3616,0.3615,0,0.2379,0.2433,0.2475,0.2573,0.2608,0.2655,0.2797,0.2853,0.2979,0.3094,0.3141,0.3306,0.3421,0.3499,0.3625,0.3585,0.3634,0.3645,0.3369,0.3331,0.3501,0.3488,0.3601,0.3599,0.3597,0.3596,0.3595,0,0.2356,0.2372,0.247,0.2512,0.256,0.264,0.2705,0.2835,0.2909,0.3124,0.3185,0.3362,0.3433,0.3574,0.3564,0.3592,0.3666,0.3362,0.324,0.3518,0.3505,0.3494,0.3484,0.3001,0.2995,0.299,0.2986,0,0.231,0.2349,0.2392,0.2483,0.2547,0.2601,0.2705,0.2757,0.2915,0.3009,0.3161,0.3242,0.3398,0.3315,0.3368,0.3342,0.3318,0.3262,0.3655,0.3032,0.2958,0.2943,0.2951,0.2943,0.2947,0.295,0.2952,0.2954,0.2287,0.2301,0.2381,0.2452,0.2515,0.2554,0.2557,0.2662,0.2739,0.2839,0.3008,0.3034,0.3105,0.3042,0.297,0.2921,0.3134,0.2979,0.2992,0.301,0.291,0.2835,0.2778,0.2781,0.2784,0.2787,0.2789,0,0.2282,0.23,0.2356,0.242,0.2437,0.2509,0.255,0.251,0.2524,0.2643,0.2714,0.2537,0.2509,0.2587,0.2448,0.2439,0.2392,0.2338,0.2255,0.2303,0.2344,0.2204,0.1888,0.1885,0.1882,0.1879,0,0,0.2284,0.2302,0.2309,0.2318,0.2364,0.2306,0.2287,0.2262,0.2284,0.222,0.2222,0.2402,0.2521,0.2169,0.2133,0.1987,0.212,0.1912,0.2646,0.2598,0.2634,0.2739,0.2582,0,0,0,0,0]},{"header":{"parameterUnit":"m.s-1","parameterCategory":2,"la1":30.2991,"la2":30.254,"lo1":-89.0895,"lo2":-89.0444,"dy":0.0017,"dx":0.0017,"nx":28,"ny":28,"refTime":"2025-08-16T09:00:00:Z","depth":"2","parameterNumber":3,"parameterNumberName":"V-component_of_CURRENTS"},"data":[0,0,0,0,0,0,0,0,0,0,0,0,0,0,0,0,0,0,0,0,0,0,0,0,0,0,0,0,0,0,0,0,0,0,0,0,0,0,0,0,0,0,0,0,0,0,0,0,0,0,0,0,0,0,0,0,0,0,0.0108,0.0109,0,0.0102,0.0102,0.0101,0.004,0.0039,0.0037,0.0036,-0.0035,-0.0035,-0.0036,0,0,0,0,0,0,0,0,0,0,0,0,0,0.0088,0.0088,0.0108,0.0109,0.0109,0.0102,0.0102,0.0101,0.004,0.0038,0.0037,0.0036,-0.0034,-0.0035,-0.0036,0,0,0,0,0,0,0,0,0,0,0,0,0,0.0087,0.0088,0.0108,0.008,0.0078,0.0102,0.0102,0.0101,0.004,0.0038,0.0037,0.0035,-0.0034,-0.0035,-0.0036,-0.0009,0,0,-0.004,-0.004,0,0,0,0,0,0,0,0,0.0087,0.0087,0.0084,0.0082,0.008,0.0074,0.0069,0.0063,0.0041,0.005,0.0036,0.0034,-0.0,-0.0004,-0.0007,-0.0012,-0.0015,-0.004,-0.0041,-0.0041,-0.0042,0,0,0,0,0,0,0,0.0087,0.0087,0.0101,0.0085,0.0082,0.0076,0.0073,0.0068,0.003,0.0049,0.0046,0.0052,-0.0003,-0.0005,-0.0009,-0.0016,-0.004,-0.0041,-0.0042,-0.0042,-0.005,-0.0049,0,0,0,0,0,0,0.0097,0.0088,0.0102,0.0102,0.0084,0.0078,0.0075,0.0074,0.0032,0.0025,0.0054,0.005,-0.0002,-0.0007,-0.0012,-0.0014,-0.0041,-0.0042,-0.0043,-0.005,-0.005,-0.0049,0,0,0,0,0,0,0.0097,0.0098,0.0102,0.0098,0.0099,0.0081,0.008,0.0075,0.0066,0.0037,0.0028,0.005,-0.0004,-0.001,-0.0034,-0.0017,-0.0043,-0.0044,-0.0051,-0.005,-0.005,0.0001,0,0,0,0,0,0,0.0096,0.0098,0.0099,0.0099,0.0099,0.0116,0.0082,0.0076,0.0075,0.0069,0.0031,0.0023,-0.0006,-0.0032,-0.0035,-0.0019,-0.0045,-0.0052,-0.0051,-0.005,-0.0001,0.0003,0.0007,0,0,0,0,0,0.0095,0.0114,0.0098,0.01,0.0101,0.0117,0.0117,0.0095,0.0077,0.0079,0.0041,0.0023,-0.0028,-0.0033,-0.0036,-0.002,-0.0052,-0.0051,-0.005,-0.0003,0.0002,0.0007,0,0,0,0,0,0,0.011,0.0109,0.0093,0.0109,0.011,0.0108,0.0115,0.0102,0.0078,0.0068,0.0027,0.0017,0.0,-0.0013,-0.0017,-0.002,-0.0041,-0.004,-0.0004,0.0001,0.0006,0.0028,-0.0046,0,0,0,0,0,0.0114,0.012,0.012,0.0132,0.0134,0.0124,0.0127,0.0117,0.0101,0.0088,0.0062,0.0033,0.0008,-0.0001,-0.0024,-0.0018,-0.0044,-0.0009,-0.0005,-0.0001,0.0015,-0.0024,-0.0022,-0.0045,-0.0045,-0.0045,0,0,0.0126,0.0125,0.0129,0.0135,0.0131,0.0153,0.012,0.0134,0.0146,0.0087,0.0085,0.0045,0.0009,0.0002,-0.0004,-0.0009,-0.0008,0.0001,0.0004,0.0018,-0.0022,-0.002,-0.0018,-0.0045,-0.0045,-0.0045,0,0,0.0164,0.0148,0.0169,0.0173,0.0178,0.0177,0.0184,0.0182,0.0168,0.0165,0.0119,0.0089,0.0064,0.0039,0.0023,0.0045,0.0009,0.004,0.009,0.0052,0.0053,0.0055,0.0022,0.002,0.0051,0.0051,0.0051,0,0.0173,0.0199,0.0179,0.0203,0.0215,0.0192,0.0225,0.0218,0.0207,0.0202,0.0168,0.012,0.0084,0.0075,0.0074,0.0056,0.0028,0.0072,0.0058,0.0058,0.0058,0.0025,0.0021,0.0054,0.0053,0.0053,0.0053,0,0.0229,0.0247,0.0263,0.0279,0.0289,0.0315,0.0308,0.0311,0.029,0.0275,0.0251,0.0193,0.0166,0.0148,0.0114,0.0109,0.0085,0.0059,0.0045,0.0064,0.0027,0.0023,0.0057,0.0056,0.0056,0.0055,0,0,0.026,0.0295,0.03,0.0322,0.0331,0.0353,0.0371,0.0383,0.0402,0.0359,0.0368,0.0304,0.0267,0.0247,0.02,0.0167,0.0133,0.0122,0.0119,0.0092,0.005,0.0016,0.0007,0.0099,0.0099,0.0099,0.0023,0,0.0308,0.0374,0.0373,0.0435,0.047,0.0454,0.0476,0.0477,0.0462,0.0465,0.0394,0.0378,0.0307,0.0293,0.0247,0.0164,0.0126,0.0157,0.0035,0.0032,-0.0,0.0003,0.0029,-0.0038,0.0018,0.0018,0.0017,0,0.0362,0.0402,0.0471,0.0519,0.053,0.0558,0.0591,0.0612,0.0599,0.0583,0.0548,0.0489,0.0437,0.037,0.0241,0.0263,0.0167,0.0094,0.0089,0.004,-0.001,-0.0048,-0.0048,0.001,0.001,0.0011,0.0011,0,0.0402,0.0468,0.0528,0.0543,0.0592,0.0613,0.0638,0.0644,0.0681,0.0662,0.068,0.0587,0.0562,0.0424,0.0267,0.0252,0.0121,0.0079,-0.0042,-0.0046,-0.0054,-0.0057,-0.0013,-0.0013,-0.0013,-0.0012,-0.0012,0,0.0455,0.0503,0.0553,0.0585,0.0662,0.0667,0.0738,0.0749,0.0781,0.0839,0.0748,0.077,0.0573,0.0472,0.0306,0.0126,0.0146,-0.0029,-0.0067,-0.0036,-0.0037,-0.0018,-0.0017,-0.0015,-0.0015,-0.0014,-0.0014,0,0.0491,0.0522,0.0597,0.0657,0.0684,0.0738,0.0823,0.0882,0.0896,0.0972,0.0973,0.0912,0.0775,0.057,0.0355,0.0195,0.0011,-0.006,-0.0008,-0.004,-0.0142,-0.0138,-0.0205,-0.0206,-0.0208,-0.0209,-0.021,0,0.0517,0.0559,0.065,0.0711,0.0743,0.0825,0.0893,0.0936,0.1015,0.1065,0.112,0.1016,0.0954,0.0628,0.0327,0.0029,0.0001,-0.0138,-0.017,-0.013,-0.0161,-0.0155,-0.0149,-0.0162,-0.0162,-0.0163,-0.0163,0,0.0568,0.0594,0.0659,0.0784,0.0867,0.0977,0.1079,0.1158,0.122,0.1275,0.1335,0.1282,0.098,0.0684,0.0276,0.0076,-0.0095,-0.0159,-0.0127,-0.0118,-0.0097,-0.0125,-0.0119,-0.0168,-0.0167,-0.0167,-0.0167,-0.0167,0.06,0.0656,0.0746,0.0867,0.0973,0.112,0.122,0.133,0.1448,0.1529,0.1476,0.1397,0.1071,0.0541,0.0211,-0.0132,-0.0129,-0.0252,-0.0248,-0.0243,-0.0225,-0.0208,-0.0296,-0.0297,-0.0297,-0.0297,-0.0297,0,0.065,0.0722,0.0834,0.0983,0.1112,0.1163,0.1345,0.1438,0.1576,0.1611,0.1619,0.129,0.0956,0.0596,0.0083,-0.0233,-0.0247,-0.0323,-0.0264,-0.0258,-0.0253,-0.0233,-0.0308,-0.0309,-0.031,-0.031,0,0,0.0681,0.0788,0.0849,0.107,0.1183,0.1365,0.147,0.1597,0.1666,0.167,0.1611,0.149,0.1054,0.0687,0.0268,-0.0013,-0.0062,-0.0072,-0.0034,0.0091,0.01,-0.0189,-0.0149,0,0,0,0,0]}],[{"header":{"parameterUnit":"m.s-1","parameterCategory":2,"la1":30.2991,"la2":30.254,"lo1":-89.0895,"lo2":-89.0444,"dy":0.0017,"dx":0.0017,"nx":28,"ny":28,"refTime":"2025-08-16T09:00:00:Z","depth":"4","parameterNumber":2,"parameterNumberName":"U-component_of_CURRENTS"},"data":[0,0,0,0,0,0,0,0,0,0,0,0,0,0,0,0,0,0,0,0,0,0,0,0,0,0,0,0,0,0,0,0,0,0,0,0,0,0,0,0,0,0,0,0,0,0,0,0,0,0,0,0,0,0,0,0,0,0,0.1378,0.1377,0,0.14,0.1401,0.1402,0.1476,0.1477,0.1478,0.1479,0.1534,0.1534,0.1534,0,0,0,0,0,0,0,0,0,0,0,0,0,0.1351,0.1352,0.1378,0.1377,0.1377,0.14,0.1401,0.1402,0.1476,0.1477,0.1478,0.148,0.1533,0.1534,0.1534,0,0,0,0,0,0,0,0,0,0,0,0,0,0.1373,0.1353,0.1378,0.1412,0.1415,0.14,0.1401,0.1402,0.1475,0.1477,0.1479,0.148,0.1533,0.1534,0.1535,0.1505,0,0,0.1536,0.1537,0,0,0,0,0,0,0,0,0.1372,0.1375,0.1407,0.141,0.1413,0.1432,0.1411,0.1436,0.1475,0.1459,0.1479,0.1481,0.1497,0.1501,0.151,0.1507,0.151,0.1536,0.1537,0.1537,0.1537,0,0,0,0,0,0,0,0.137,0.1374,0.1393,0.1407,0.141,0.141,0.1416,0.1417,0.1473,0.146,0.1464,0.1457,0.15,0.1509,0.1511,0.1511,0.1536,0.1537,0.1537,0.1538,0.1619,0.1621,0,0,0,0,0,0,0.1356,0.1372,0.1392,0.1393,0.1389,0.1409,0.1416,0.1429,0.1473,0.1479,0.1455,0.146,0.1507,0.1511,0.1514,0.1598,0.1537,0.1538,0.1538,0.1617,0.1619,0.1621,0,0,0,0,0,0,0.1356,0.1359,0.1391,0.1377,0.1381,0.1408,0.1421,0.1428,0.1461,0.1468,0.1477,0.1483,0.1508,0.1513,0.1564,0.1596,0.1538,0.1539,0.1615,0.1618,0.162,0.1691,0,0,0,0,0,0,0.1356,0.1359,0.1379,0.1377,0.1381,0.1406,0.1419,0.1427,0.145,0.1457,0.1493,0.1499,0.151,0.1563,0.1564,0.1596,0.1539,0.1613,0.1616,0.162,0.1687,0.1696,0.1704,0,0,0,0,0,0.1355,0.1362,0.138,0.1383,0.1403,0.1406,0.141,0.1437,0.1449,0.1472,0.1513,0.15,0.1585,0.1565,0.1566,0.1599,0.1611,0.1615,0.1619,0.1683,0.1694,0.1704,0,0,0,0,0,0,0.1359,0.137,0.139,0.1402,0.1417,0.1417,0.1437,0.1443,0.149,0.1513,0.1521,0.153,0.1589,0.158,0.1558,0.1633,0.1595,0.16,0.1643,0.1654,0.1663,0.1668,0.154,0,0,0,0,0,0.1367,0.1381,0.1392,0.1403,0.1419,0.1432,0.144,0.146,0.1485,0.1508,0.1539,0.1572,0.1598,0.1618,0.1644,0.1675,0.1678,0.1697,0.1706,0.1714,0.172,0.1755,0.1768,0.1635,0.1635,0.1635,0,0,0.1368,0.1375,0.1384,0.1405,0.1426,0.1449,0.1446,0.1471,0.1501,0.1504,0.158,0.1605,0.1615,0.1671,0.1694,0.1673,0.1757,0.1719,0.1725,0.1727,0.1761,0.1774,0.1785,0.1637,0.1637,0.1636,0,0,0.1366,0.1395,0.1413,0.143,0.1459,0.1471,0.1481,0.1514,0.1554,0.1608,0.1628,0.1678,0.1716,0.1742,0.1751,0.1815,0.1804,0.1822,0.1868,0.1903,0.1914,0.1924,0.1958,0.1971,0.1824,0.1824,0.1824,0,0.1378,0.1398,0.1417,0.1441,0.1455,0.1484,0.1508,0.1545,0.1595,0.1633,0.165,0.1735,0.1749,0.1798,0.1838,0.1834,0.1854,0.1826,0.1914,0.1923,0.1932,0.1965,0.1978,0.1828,0.1827,0.1827,0.1827,0,0.138,0.1416,0.1429,0.1476,0.1495,0.152,0.1563,0.162,0.1667,0.1701,0.1785,0.1821,0.1869,0.1882,0.1884,0.1952,0.1948,0.1923,0.1885,0.195,0.1981,0.1993,0.1833,0.1832,0.1831,0.183,0,0,0.1366,0.1424,0.1435,0.1465,0.1518,0.153,0.1602,0.1665,0.1723,0.1793,0.1861,0.1924,0.1955,0.1968,0.1977,0.2011,0.21,0.2005,0.2005,0.2037,0.2191,0.2055,0.2055,0.2096,0.2098,0.21,0.2193,0,0.1377,0.1417,0.1445,0.1497,0.1526,0.1581,0.164,0.1705,0.1777,0.1862,0.1911,0.1985,0.1981,0.2023,0.2058,0.2093,0.2133,0.2078,0.2126,0.2127,0.1996,0.2064,0.2106,0.2201,0.2204,0.2206,0.2207,0,0.1372,0.1402,0.1448,0.152,0.1542,0.1582,0.1682,0.1742,0.1859,0.1922,0.2001,0.2048,0.2129,0.2109,0.22,0.2171,0.2195,0.221,0.2214,0.2067,0.2012,0.212,0.2228,0.2226,0.2225,0.2223,0.2222,0,0.1328,0.1404,0.1438,0.1459,0.1547,0.1598,0.1657,0.1768,0.1839,0.1973,0.2043,0.2127,0.2197,0.2234,0.2287,0.226,0.2374,0.233,0.2228,0.2219,0.2281,0.2269,0.2391,0.2391,0.2391,0.2391,0.239,0,0.1304,0.1341,0.1431,0.1449,0.1513,0.1585,0.1678,0.1759,0.1887,0.197,0.2076,0.2147,0.2238,0.2311,0.2324,0.2319,0.2408,0.225,0.2235,0.2311,0.2301,0.229,0.2277,0.2394,0.2393,0.2393,0.2392,0,0.1243,0.1303,0.1351,0.1454,0.1492,0.1539,0.1677,0.1738,0.1885,0.1997,0.2049,0.22,0.2291,0.2359,0.2436,0.2364,0.237,0.2345,0.2449,0.2436,0.2183,0.2173,0.2228,0.2224,0.2221,0.2218,0.2216,0,0.1208,0.1229,0.1334,0.136,0.1412,0.1503,0.1559,0.1714,0.1786,0.2006,0.2042,0.2201,0.2279,0.2289,0.2358,0.2374,0.2341,0.2328,0.2225,0.2187,0.2168,0.2163,0.2158,0.221,0.2209,0.2209,0.2208,0,0.1143,0.1193,0.1229,0.1289,0.1346,0.1399,0.1504,0.1558,0.1741,0.1893,0.2001,0.2063,0.2162,0.2209,0.225,0.2248,0.2319,0.2291,0.2297,0.22,0.2166,0.2149,0.2148,0.2196,0.2198,0.2199,0.2199,0,0.1086,0.1093,0.115,0.1189,0.1257,0.1278,0.1349,0.1447,0.1547,0.1807,0.1836,0.2002,0.2148,0.2146,0.2178,0.2174,0.2123,0.2033,0.2051,0.2064,0.1963,0.1893,0.1838,0,0,0,0,0,0.1014,0.1003,0.1041,0.1067,0.1134,0.1177,0.13,0.1383,0.1585,0.1615,0.1731,0.1818,0.189,0.1971,0.1931,0.2076,0.2112,0.2017,0.2011,0.2131,0.2144,0.2037,0,0,0,0,0,0,0.0956,0.0976,0.0999,0.097,0.0976,0.1026,0.1107,0.1232,0.1276,0.1491,0.1544,0.1695,0.179,0.1894,0.1892,0.1913,0.1869,0.2122,0.2117,0.2123,0.2136,0.2146,0.204,0,0,0,0,0]},{"header":{"parameterUnit":"m.s-1","parameterCategory":2,"la1":30.2991,"la2":30.254,"lo1":-89.0895,"lo2":-89.0444,"dy":0.0017,"dx":0.0017,"nx":28,"ny":28,"refTime":"2025-08-16T09:00:00:Z","depth":"4","parameterNumber":3,"parameterNumberName":"V-component_of_CURRENTS"},"data":[0,0,0,0,0,0,0,0,0,0,0,0,0,0,0,0,0,0,0,0,0,0,0,0,0,0,0,0,0,0,0,0,0,0,0,0,0,0,0,0,0,0,0,0,0,0,0,0,0,0,0,0,0,0,0,0,0,0,0.0152,0.0153,0,0.0171,0.0171,0.0171,0.0146,0.0145,0.0145,0.0144,0.0111,0.011,0.011,0,0,0,0,0,0,0,0,0,0,0,0,0,0.0112,0.0112,0.0152,0.0153,0.0153,0.0171,0.0171,0.0171,0.0146,0.0145,0.0145,0.0144,0.0111,0.011,0.011,0,0,0,0,0,0,0,0,0,0,0,0,0,0.0127,0.0112,0.0152,0.0145,0.0145,0.0171,0.0171,0.0171,0.0146,0.0145,0.0144,0.0144,0.0111,0.011,0.011,0.0126,0,0,0.0108,0.0108,0,0,0,0,0,0,0,0,0.0126,0.0128,0.0146,0.0146,0.0146,0.0158,0.0145,0.0155,0.0147,0.0142,0.0144,0.0143,0.0124,0.0123,0.0125,0.0124,0.0123,0.0108,0.0108,0.0108,0.0108,0,0,0,0,0,0,0,0.0125,0.0127,0.0157,0.0146,0.0146,0.0148,0.0148,0.0147,0.0135,0.0143,0.0142,0.0149,0.0123,0.0125,0.0124,0.0122,0.0108,0.0108,0.0108,0.0108,0.0097,0.0097,0,0,0,0,0,0,0.0129,0.0126,0.0156,0.0157,0.0137,0.0149,0.015,0.0152,0.0136,0.0134,0.015,0.0148,0.0126,0.0124,0.0122,0.0123,0.0108,0.0107,0.0107,0.0097,0.0097,0.0097,0,0,0,0,0,0,0.0128,0.0132,0.0155,0.0145,0.0148,0.0151,0.0154,0.0153,0.0159,0.0143,0.0139,0.0157,0.0126,0.0123,0.0117,0.0122,0.0107,0.0107,0.0097,0.0097,0.0097,0.0135,0,0,0,0,0,0,0.0127,0.0131,0.0135,0.0145,0.0149,0.0176,0.0156,0.0155,0.0166,0.0163,0.0147,0.0143,0.0125,0.0118,0.0117,0.0121,0.0106,0.0097,0.0097,0.0097,0.0134,0.0136,0.0138,0,0,0,0,0,0.0125,0.0143,0.0134,0.0138,0.0154,0.0177,0.018,0.0176,0.0167,0.0176,0.0157,0.0144,0.0116,0.0118,0.0116,0.0121,0.0097,0.0097,0.0097,0.0133,0.0136,0.0138,0,0,0,0,0,0,0.0132,0.0142,0.0133,0.0153,0.0164,0.0174,0.0186,0.0184,0.0179,0.0175,0.015,0.0145,0.014,0.0127,0.0129,0.0116,0.0103,0.0102,0.013,0.0133,0.0135,0.0142,0.0106,0,0,0,0,0,0.0135,0.0146,0.0155,0.0171,0.0177,0.0181,0.0191,0.0193,0.0192,0.0189,0.0174,0.0155,0.014,0.0134,0.0121,0.0122,0.0089,0.012,0.0123,0.0125,0.0128,0.0079,0.0077,0.0097,0.0097,0.0097,0,0,0.0144,0.015,0.0157,0.0173,0.0178,0.0197,0.0184,0.0207,0.0217,0.0186,0.0189,0.0168,0.0142,0.0136,0.0132,0.0125,0.0101,0.0125,0.0127,0.0129,0.0079,0.0077,0.0075,0.0097,0.0097,0.0097,0,0,0.0173,0.017,0.0189,0.0199,0.0216,0.0218,0.0228,0.0239,0.0235,0.0241,0.0213,0.0194,0.0181,0.0157,0.0143,0.0153,0.0116,0.015,0.0168,0.0121,0.0119,0.0117,0.0068,0.0061,0.015,0.015,0.015,0,0.0181,0.0204,0.0201,0.0221,0.0234,0.0229,0.0256,0.0256,0.0262,0.0259,0.0245,0.0208,0.0188,0.0169,0.0168,0.0159,0.0125,0.0161,0.0124,0.0121,0.0118,0.0069,0.0061,0.0152,0.0152,0.0151,0.0151,0,0.0223,0.024,0.0255,0.027,0.0283,0.0309,0.0309,0.0316,0.0308,0.03,0.0282,0.0247,0.0223,0.021,0.0193,0.0166,0.0145,0.0134,0.0118,0.0118,0.0066,0.0057,0.0154,0.0154,0.0153,0.0153,0,0,0.0241,0.0277,0.0281,0.0297,0.0313,0.0332,0.0345,0.0354,0.0361,0.0339,0.0335,0.0296,0.0271,0.0254,0.0223,0.018,0.0128,0.0153,0.0149,0.0107,0.0018,0.0012,0.0001,0.0108,0.0107,0.0106,-0.0011,0,0.0273,0.0322,0.033,0.0373,0.0397,0.0394,0.0407,0.0411,0.0399,0.0391,0.034,0.0325,0.0289,0.0279,0.0229,0.0158,0.0107,0.0161,0.0022,0.0018,0.0014,-0.0008,0.0102,-0.0018,-0.0021,-0.0022,-0.0023,0,0.0307,0.0337,0.0389,0.0425,0.0435,0.0457,0.0474,0.0489,0.0468,0.0455,0.042,0.0382,0.0323,0.0292,0.0157,0.0193,0.0111,0.0047,0.004,0.0017,-0.0005,-0.0019,-0.004,-0.0039,-0.0038,-0.0036,-0.0035,0,0.0323,0.0375,0.0419,0.0432,0.0472,0.0491,0.051,0.0508,0.0528,0.0498,0.0498,0.0415,0.038,0.0266,0.0139,0.0145,-0.0018,-0.0028,-0.0117,-0.0118,-0.0094,-0.009,-0.0131,-0.0131,-0.0131,-0.013,-0.013,0,0.035,0.0385,0.0433,0.0457,0.0511,0.0523,0.057,0.0572,0.0581,0.0601,0.0537,0.0519,0.0372,0.0267,0.0144,-0.0015,-0.002,-0.0121,-0.0151,-0.0076,-0.0069,-0.0101,-0.0096,-0.0135,-0.0134,-0.0133,-0.0132,0,0.036,0.0392,0.0446,0.0499,0.0523,0.0561,0.0627,0.0657,0.0657,0.0679,0.0675,0.0589,0.0449,0.0292,0.0098,-0.0001,-0.0155,-0.0211,-0.0123,-0.0145,-0.0227,-0.0218,-0.0324,-0.0325,-0.0326,-0.0327,-0.0328,0,0.0368,0.0399,0.0478,0.0521,0.0551,0.0614,0.0663,0.0693,0.0728,0.0719,0.0728,0.0611,0.0532,0.0257,0.0082,-0.0166,-0.0197,-0.0278,-0.0252,-0.0229,-0.0248,-0.0238,-0.0228,-0.0329,-0.033,-0.033,-0.033,0,0.0383,0.0413,0.046,0.0552,0.0615,0.0691,0.0759,0.0791,0.0821,0.0817,0.077,0.0635,0.0471,0.0258,0.0064,-0.0112,-0.0225,-0.029,-0.0289,-0.0265,-0.0237,-0.0252,-0.0242,-0.0334,-0.0333,-0.0333,-0.0333,0,0.039,0.0429,0.05,0.0579,0.0661,0.0744,0.0781,0.0821,0.0855,0.0844,0.0818,0.0649,0.0549,0.0285,0.0105,-0.0069,-0.0111,-0.0159,-0.0165,-0.0164,-0.008,-0.0019,-0.0081,0,0,0,0,0,0.0399,0.0454,0.0527,0.0615,0.0693,0.0752,0.0836,0.0867,0.089,0.0868,0.085,0.07,0.0436,0.0318,0.0143,0.0073,-0.015,-0.0139,-0.021,-0.0354,-0.035,-0.0279,0,0,0,0,0,0,0.0411,0.0481,0.0526,0.0628,0.0693,0.079,0.0851,0.0873,0.0863,0.0856,0.0718,0.0652,0.0393,0.0532,0.0136,0.0082,0.0013,-0.0264,-0.0267,-0.0356,-0.0352,-0.0349,-0.0275,0,0,0,0,0]}]]